Time,TemperatureF,DewpointF,PressureIn,WindDirection,WindDirectionDegrees,WindSpeedMPH,WindSpeedGustMPH,Humidity,HourlyPrecipIn,Conditions,Clouds,dailyrainin,SoftwareType,DateUTC
2013-02-06 00:00:00,13.0,8.0,30.21,ENE,67,7.0,8.0,80,0.00,,,0.00,Rainwise IP-100,2013-02-06 05:00:00,
2013-02-06 00:05:00,14.0,8.0,30.21,NNE,22,4.0,7.0,79,0.00,,,0.00,Rainwise IP-100,2013-02-06 05:05:00,
2013-02-06 00:10:00,13.0,8.0,30.21,NNE,22,4.0,7.0,80,0.00,,,0.00,Rainwise IP-100,2013-02-06 05:10:00,
2013-02-06 00:15:00,13.0,8.0,30.21,NNE,22,7.0,7.0,80,0.00,,,0.00,Rainwise IP-100,2013-02-06 05:15:00,
2013-02-06 00:20:00,12.0,8.0,30.21,NNE,22,4.0,7.0,80,0.00,,,0.00,Rainwise IP-100,2013-02-06 05:20:00,
2013-02-06 00:25:00,12.0,8.0,30.20,NE,45,2.0,7.0,80,0.00,,,0.00,Rainwise IP-100,2013-02-06 05:25:00,
2013-02-06 00:30:00,12.0,8.0,30.20,ENE,67,3.0,8.0,80,0.00,,,0.00,Rainwise IP-100,2013-02-06 05:30:00,
2013-02-06 00:35:00,12.0,8.0,30.20,NNW,337,0.0,4.0,80,0.00,,,0.00,Rainwise IP-100,2013-02-06 05:35:00,
2013-02-06 00:40:00,11.0,8.0,30.20,NW,315,0.0,1.0,81,0.00,,,0.00,Rainwise IP-100,2013-02-06 05:40:00,
2013-02-06 00:43:00,11.0,8.0,30.20,NNW,337,0.0,2.0,81,0.00,,,0.00,Rainwise IP-100,2013-02-06 05:43:00,
2013-02-06 00:48:00,11.0,8.0,30.20,NNW,337,0.0,0.0,81,0.00,,,0.00,Rainwise IP-100,2013-02-06 05:48:00,
2013-02-06 00:53:00,11.0,8.0,30.19,WNW,292,0.0,1.0,81,0.00,,,0.00,Rainwise IP-100,2013-02-06 05:53:00,
2013-02-06 00:55:00,10.0,8.0,30.19,WNW,292,0.0,0.0,81,0.00,,,0.00,Rainwise IP-100,2013-02-06 05:55:00,
2013-02-06 01:00:00,10.0,8.0,30.20,WNW,292,0.0,1.0,81,0.00,,,0.00,Rainwise IP-100,2013-02-06 06:00:00,
2013-02-06 01:05:00,10.0,8.0,30.20,WNW,292,0.0,1.0,81,0.00,,,0.00,Rainwise IP-100,2013-02-06 06:05:00,
2013-02-06 01:10:00,9.0,8.0,30.20,WNW,292,0.0,1.0,82,0.00,,,0.00,Rainwise IP-100,2013-02-06 06:10:00,
2013-02-06 01:15:00,9.0,8.0,30.20,WNW,292,0.0,0.0,82,0.00,,,0.00,Rainwise IP-100,2013-02-06 06:15:00,
2013-02-06 01:20:00,9.0,8.0,30.20,WNW,292,1.0,1.0,82,0.00,,,0.00,Rainwise IP-100,2013-02-06 06:20:00,
2013-02-06 01:25:00,9.0,8.0,30.20,WNW,292,0.0,1.0,82,0.00,,,0.00,Rainwise IP-100,2013-02-06 06:25:00,
2013-02-06 01:30:00,9.0,8.0,30.20,WNW,292,0.0,0.0,82,0.00,,,0.00,Rainwise IP-100,2013-02-06 06:30:00,
2013-02-06 01:35:00,9.0,8.0,30.20,WNW,292,0.0,0.0,82,0.00,,,0.00,Rainwise IP-100,2013-02-06 06:35:00,
2013-02-06 01:40:00,9.0,8.0,30.20,North,360,0.0,4.0,82,0.00,,,0.00,Rainwise IP-100,2013-02-06 06:40:00,
2013-02-06 01:45:00,9.0,8.0,30.19,NNW,337,0.0,4.0,82,0.00,,,0.00,Rainwise IP-100,2013-02-06 06:45:00,
2013-02-06 01:50:00,9.0,8.0,30.20,NE,45,0.0,1.0,82,0.00,,,0.00,Rainwise IP-100,2013-02-06 06:50:00,
2013-02-06 01:55:00,10.0,8.0,30.19,NE,45,0.0,0.0,81,0.00,,,0.00,Rainwise IP-100,2013-02-06 06:55:00,
2013-02-06 02:00:00,10.0,8.0,30.19,North,360,0.0,0.0,81,0.00,,,0.00,Rainwise IP-100,2013-02-06 07:00:00,
2013-02-06 02:02:00,10.0,8.0,30.19,NNW,337,0.0,0.0,81,0.00,,,0.00,Rainwise IP-100,2013-02-06 07:02:00,
2013-02-06 02:07:00,9.0,8.0,30.19,NW,315,0.0,1.0,82,0.00,,,0.00,Rainwise IP-100,2013-02-06 07:07:00,
2013-02-06 02:12:00,9.0,8.0,30.19,NNW,337,0.0,0.0,82,0.00,,,0.00,Rainwise IP-100,2013-02-06 07:12:00,
2013-02-06 02:17:00,9.0,8.0,30.19,NNW,337,0.0,2.0,82,0.00,,,0.00,Rainwise IP-100,2013-02-06 07:17:00,
2013-02-06 02:22:00,9.0,8.0,30.19,NNW,337,0.0,2.0,82,0.00,,,0.00,Rainwise IP-100,2013-02-06 07:22:00,
2013-02-06 02:27:00,9.0,8.0,30.19,WNW,292,0.0,0.0,82,0.00,,,0.00,Rainwise IP-100,2013-02-06 07:27:00,
2013-02-06 02:32:00,8.0,4.0,30.18,WNW,292,0.0,1.0,82,0.00,,,0.00,Rainwise IP-100,2013-02-06 07:32:00,
2013-02-06 02:37:00,8.0,4.0,30.18,WNW,292,0.0,2.0,82,0.00,,,0.00,Rainwise IP-100,2013-02-06 07:37:00,
2013-02-06 02:42:00,8.0,4.0,30.18,WNW,292,0.0,1.0,82,0.00,,,0.00,Rainwise IP-100,2013-02-06 07:42:00,
2013-02-06 02:47:00,8.0,4.0,30.18,WNW,292,0.0,1.0,82,0.00,,,0.00,Rainwise IP-100,2013-02-06 07:47:00,
2013-02-06 02:52:00,9.0,8.0,30.17,WNW,292,0.0,1.0,82,0.00,,,0.00,Rainwise IP-100,2013-02-06 07:52:00,
2013-02-06 02:57:00,9.0,8.0,30.17,NW,315,0.0,3.0,82,0.00,,,0.00,Rainwise IP-100,2013-02-06 07:57:00,
2013-02-06 03:02:00,9.0,8.0,30.17,NW,315,0.0,0.0,82,0.00,,,0.00,Rainwise IP-100,2013-02-06 08:02:00,
2013-02-06 03:07:00,9.0,8.0,30.17,NW,315,0.0,1.0,82,0.00,,,0.00,Rainwise IP-100,2013-02-06 08:07:00,
2013-02-06 03:12:00,10.0,8.0,30.17,NNW,337,0.0,3.0,81,0.00,,,0.00,Rainwise IP-100,2013-02-06 08:12:00,
2013-02-06 03:17:00,10.0,8.0,30.17,NNW,337,0.0,3.0,81,0.00,,,0.00,Rainwise IP-100,2013-02-06 08:17:00,
2013-02-06 03:22:00,10.0,8.0,30.17,NNW,337,0.0,6.0,81,0.00,,,0.00,Rainwise IP-100,2013-02-06 08:22:00,
2013-02-06 03:27:00,11.0,8.0,30.16,NNW,337,0.0,7.0,81,0.00,,,0.00,Rainwise IP-100,2013-02-06 08:27:00,
2013-02-06 03:32:00,11.0,8.0,30.16,North,360,0.0,5.0,81,0.00,,,0.00,Rainwise IP-100,2013-02-06 08:32:00,
2013-02-06 03:37:00,11.0,8.0,30.16,NNE,22,0.0,4.0,81,0.00,,,0.00,Rainwise IP-100,2013-02-06 08:37:00,
2013-02-06 03:42:00,11.0,8.0,30.16,ENE,67,1.0,6.0,81,0.00,,,0.00,Rainwise IP-100,2013-02-06 08:42:00,
2013-02-06 03:47:00,12.0,8.0,30.16,ENE,67,0.0,3.0,80,0.00,,,0.00,Rainwise IP-100,2013-02-06 08:47:00,
2013-02-06 03:52:00,12.0,8.0,30.16,NE,45,0.0,6.0,80,0.00,,,0.00,Rainwise IP-100,2013-02-06 08:52:00,
2013-02-06 03:57:00,12.0,8.0,30.16,NE,45,4.0,6.0,80,0.00,,,0.00,Rainwise IP-100,2013-02-06 08:57:00,
2013-02-06 04:03:00,12.0,8.0,30.15,ENE,67,6.0,6.0,80,0.00,,,0.00,Rainwise IP-100,2013-02-06 09:03:00,
2013-02-06 04:08:00,12.0,8.0,30.15,NNE,22,1.0,6.0,80,0.00,,,0.00,Rainwise IP-100,2013-02-06 09:08:00,
2013-02-06 04:14:00,12.0,8.0,30.15,NNE,22,0.0,6.0,80,0.00,,,0.00,Rainwise IP-100,2013-02-06 09:14:00,
2013-02-06 04:20:00,12.0,8.0,30.15,ENE,67,1.0,7.0,80,0.00,,,0.00,Rainwise IP-100,2013-02-06 09:20:00,
2013-02-06 04:25:00,12.0,8.0,30.15,NE,45,5.0,6.0,80,0.00,,,0.00,Rainwise IP-100,2013-02-06 09:25:00,
2013-02-06 04:31:00,12.0,8.0,30.15,NE,45,6.0,7.0,80,0.00,,,0.00,Rainwise IP-100,2013-02-06 09:31:00,
2013-02-06 04:36:00,12.0,8.0,30.15,North,360,4.0,7.0,80,0.00,,,0.00,Rainwise IP-100,2013-02-06 09:36:00,
2013-02-06 04:41:00,12.0,8.0,30.15,NE,45,4.0,7.0,80,0.00,,,0.00,Rainwise IP-100,2013-02-06 09:41:00,
2013-02-06 04:46:00,12.0,8.0,30.15,NE,45,3.0,7.0,80,0.00,,,0.00,Rainwise IP-100,2013-02-06 09:46:00,
2013-02-06 04:51:00,13.0,8.0,30.15,NE,45,4.0,7.0,80,0.00,,,0.00,Rainwise IP-100,2013-02-06 09:51:00,
2013-02-06 04:57:00,13.0,8.0,30.15,NNE,22,6.0,7.0,80,0.00,,,0.00,Rainwise IP-100,2013-02-06 09:57:00,
2013-02-06 05:02:00,13.0,8.0,30.15,NE,45,5.0,7.0,80,0.00,,,0.00,Rainwise IP-100,2013-02-06 10:02:00,
2013-02-06 05:07:00,13.0,8.0,30.15,ENE,67,3.0,7.0,80,0.00,,,0.00,Rainwise IP-100,2013-02-06 10:07:00,
2013-02-06 05:12:00,13.0,8.0,30.15,NE,45,1.0,7.0,80,0.00,,,0.00,Rainwise IP-100,2013-02-06 10:12:00,
2013-02-06 05:17:00,13.0,8.0,30.15,ENE,67,4.0,7.0,80,0.00,,,0.00,Rainwise IP-100,2013-02-06 10:17:00,
2013-02-06 05:22:00,13.0,8.0,30.15,NE,45,5.0,6.0,80,0.00,,,0.00,Rainwise IP-100,2013-02-06 10:22:00,
2013-02-06 05:27:00,13.0,8.0,30.15,NNE,22,3.0,6.0,80,0.00,,,0.00,Rainwise IP-100,2013-02-06 10:27:00,
2013-02-06 05:32:00,13.0,8.0,30.15,NE,45,6.0,6.0,80,0.00,,,0.00,Rainwise IP-100,2013-02-06 10:32:00,
2013-02-06 05:38:00,14.0,8.0,30.15,NNE,22,0.0,6.0,79,0.00,,,0.00,Rainwise IP-100,2013-02-06 10:38:00,
2013-02-06 05:43:00,14.0,8.0,30.15,NNW,337,0.0,1.0,79,0.00,,,0.00,Rainwise IP-100,2013-02-06 10:43:00,
2013-02-06 05:48:00,14.0,8.0,30.15,NNW,337,0.0,0.0,79,0.00,,,0.00,Rainwise IP-100,2013-02-06 10:48:00,
2013-02-06 05:53:00,14.0,8.0,30.16,NNW,337,0.0,0.0,79,0.00,,,0.00,Rainwise IP-100,2013-02-06 10:53:00,
2013-02-06 05:58:00,14.0,8.0,30.15,ESE,112,2.0,6.0,79,0.00,,,0.00,Rainwise IP-100,2013-02-06 10:58:00,
2013-02-06 06:05:00,15.0,11.0,30.15,East,90,1.0,6.0,79,0.00,,,0.00,Rainwise IP-100,2013-02-06 11:05:00,
2013-02-06 06:10:00,15.0,11.0,30.15,ENE,67,0.0,7.0,79,0.00,,,0.00,Rainwise IP-100,2013-02-06 11:10:00,
2013-02-06 06:15:00,15.0,11.0,30.15,North,360,0.0,7.0,79,0.00,,,0.00,Rainwise IP-100,2013-02-06 11:15:00,
2013-02-06 06:20:00,15.0,11.0,30.15,North,360,0.0,0.0,79,0.00,,,0.00,Rainwise IP-100,2013-02-06 11:20:00,
2013-02-06 06:25:00,15.0,11.0,30.15,NNE,22,0.0,6.0,79,0.00,,,0.00,Rainwise IP-100,2013-02-06 11:25:00,
2013-02-06 06:30:00,15.0,11.0,30.15,NNW,337,0.0,0.0,79,0.00,,,0.00,Rainwise IP-100,2013-02-06 11:30:00,
2013-02-06 06:35:00,14.0,8.0,30.16,NNW,337,0.0,0.0,79,0.00,,,0.00,Rainwise IP-100,2013-02-06 11:35:00,
2013-02-06 06:40:00,14.0,8.0,30.16,WNW,292,0.0,2.0,79,0.00,,,0.00,Rainwise IP-100,2013-02-06 11:40:00,
2013-02-06 06:47:00,13.0,8.0,30.16,WNW,292,0.0,2.0,80,0.00,,,0.00,Rainwise IP-100,2013-02-06 11:47:00,
2013-02-06 06:52:00,13.0,8.0,30.16,WNW,292,2.0,2.0,80,0.00,,,0.00,Rainwise IP-100,2013-02-06 11:52:00,
2013-02-06 06:57:00,13.0,8.0,30.17,WNW,292,0.0,4.0,80,0.00,,,0.00,Rainwise IP-100,2013-02-06 11:57:00,
2013-02-06 07:02:00,13.0,8.0,30.17,NW,315,0.0,1.0,80,0.00,,,0.00,Rainwise IP-100,2013-02-06 12:02:00,
2013-02-06 07:07:00,13.0,8.0,30.17,NNW,337,0.0,3.0,80,0.00,,,0.00,Rainwise IP-100,2013-02-06 12:07:00,
2013-02-06 07:12:00,13.0,8.0,30.17,NNW,337,3.0,5.0,80,0.00,,,0.00,Rainwise IP-100,2013-02-06 12:12:00,
2013-02-06 07:17:00,13.0,8.0,30.17,NNW,337,4.0,6.0,80,0.00,,,0.00,Rainwise IP-100,2013-02-06 12:17:00,
2013-02-06 07:22:00,14.0,8.0,30.17,NNW,337,2.0,6.0,79,0.00,,,0.00,Rainwise IP-100,2013-02-06 12:22:00,
2013-02-06 07:27:00,14.0,8.0,30.17,NNW,337,2.0,6.0,79,0.00,,,0.00,Rainwise IP-100,2013-02-06 12:27:00,
2013-02-06 07:33:00,14.0,8.0,30.17,NNW,337,0.0,3.0,79,0.00,,,0.00,Rainwise IP-100,2013-02-06 12:33:00,
2013-02-06 07:38:00,14.0,8.0,30.17,NNW,337,0.0,3.0,79,0.00,,,0.00,Rainwise IP-100,2013-02-06 12:38:00,
2013-02-06 07:43:00,14.0,8.0,30.17,NNW,337,0.0,0.0,79,0.00,,,0.00,Rainwise IP-100,2013-02-06 12:43:00,
2013-02-06 07:48:00,14.0,8.0,30.18,NNW,337,0.0,0.0,79,0.00,,,0.00,Rainwise IP-100,2013-02-06 12:48:00,
2013-02-06 07:54:00,14.0,8.0,30.17,NNW,337,0.0,0.0,79,0.00,,,0.00,Rainwise IP-100,2013-02-06 12:54:00,
2013-02-06 07:59:00,14.0,8.0,30.18,NNW,337,0.0,0.0,79,0.00,,,0.00,Rainwise IP-100,2013-02-06 12:59:00,
2013-02-06 08:04:00,14.0,8.0,30.17,NNW,337,0.0,0.0,79,0.00,,,0.00,Rainwise IP-100,2013-02-06 13:04:00,
2013-02-06 08:09:00,15.0,11.0,30.17,NNW,337,0.0,0.0,79,0.00,,,0.00,Rainwise IP-100,2013-02-06 13:09:00,
2013-02-06 08:14:00,15.0,11.0,30.17,NNW,337,0.0,0.0,79,0.00,,,0.00,Rainwise IP-100,2013-02-06 13:14:00,
2013-02-06 08:19:00,15.0,11.0,30.17,NNW,337,0.0,0.0,79,0.00,,,0.00,Rainwise IP-100,2013-02-06 13:19:00,
2013-02-06 08:24:00,15.0,11.0,30.17,NNW,337,0.0,0.0,79,0.00,,,0.00,Rainwise IP-100,2013-02-06 13:24:00,
2013-02-06 08:29:00,16.0,11.0,30.17,East,90,0.0,3.0,78,0.00,,,0.00,Rainwise IP-100,2013-02-06 13:29:00,
2013-02-06 08:34:00,16.0,11.0,30.17,ENE,67,0.0,4.0,78,0.00,,,0.00,Rainwise IP-100,2013-02-06 13:34:00,
2013-02-06 08:39:00,16.0,11.0,30.16,ENE,67,1.0,5.0,78,0.00,,,0.00,Rainwise IP-100,2013-02-06 13:39:00,
2013-02-06 08:44:00,16.0,11.0,30.16,NE,45,2.0,5.0,78,0.00,,,0.00,Rainwise IP-100,2013-02-06 13:44:00,
2013-02-06 08:49:00,16.0,11.0,30.16,ENE,67,0.0,5.0,78,0.00,,,0.00,Rainwise IP-100,2013-02-06 13:49:00,
2013-02-06 08:54:00,17.0,14.0,30.16,NNE,22,0.0,4.0,78,0.00,,,0.00,Rainwise IP-100,2013-02-06 13:54:00,
2013-02-06 08:59:00,17.0,14.0,30.15,NNE,22,0.0,0.0,78,0.00,,,0.00,Rainwise IP-100,2013-02-06 13:59:00,
2013-02-06 09:05:00,17.0,14.0,30.15,NNE,22,0.0,0.0,78,0.00,,,0.00,Rainwise IP-100,2013-02-06 14:05:00,
2013-02-06 09:10:00,17.0,14.0,30.15,NNE,22,0.0,0.0,78,0.00,,,0.00,Rainwise IP-100,2013-02-06 14:10:00,
2013-02-06 09:15:00,17.0,14.0,30.16,NNE,22,0.0,0.0,78,0.00,,,0.00,Rainwise IP-100,2013-02-06 14:15:00,
2013-02-06 09:20:00,17.0,14.0,30.16,NNE,22,0.0,0.0,78,0.00,,,0.00,Rainwise IP-100,2013-02-06 14:20:00,
2013-02-06 09:27:00,18.0,14.0,30.16,NNE,22,0.0,0.0,77,0.00,,,0.00,Rainwise IP-100,2013-02-06 14:27:00,
2013-02-06 09:32:00,18.0,14.0,30.16,NNE,22,0.0,0.0,77,0.00,,,0.00,Rainwise IP-100,2013-02-06 14:32:00,
2013-02-06 09:37:00,18.0,14.0,30.16,NNE,22,0.0,0.0,77,0.00,,,0.00,Rainwise IP-100,2013-02-06 14:37:00,
2013-02-06 09:42:00,18.0,14.0,30.16,NNW,337,0.0,0.0,77,0.00,,,0.00,Rainwise IP-100,2013-02-06 14:42:00,
2013-02-06 09:47:00,18.0,14.0,30.16,NNW,337,0.0,0.0,77,0.00,,,0.00,Rainwise IP-100,2013-02-06 14:47:00,
2013-02-06 09:52:00,18.0,14.0,30.16,WNW,292,0.0,0.0,77,0.00,,,0.00,Rainwise IP-100,2013-02-06 14:52:00,
2013-02-06 09:57:00,18.0,14.0,30.16,NW,315,0.0,0.0,77,0.00,,,0.00,Rainwise IP-100,2013-02-06 14:57:00,
2013-02-06 10:02:00,18.0,14.0,30.16,NW,315,0.0,0.0,77,0.00,,,0.00,Rainwise IP-100,2013-02-06 15:02:00,
2013-02-06 10:07:00,19.0,14.0,30.16,NW,315,0.0,0.0,76,0.00,,,0.00,Rainwise IP-100,2013-02-06 15:07:00,
2013-02-06 10:12:00,19.0,14.0,30.16,WNW,292,0.0,0.0,76,0.00,,,0.00,Rainwise IP-100,2013-02-06 15:12:00,
2013-02-06 10:17:00,19.0,14.0,30.16,WNW,292,0.0,0.0,76,0.00,,,0.00,Rainwise IP-100,2013-02-06 15:17:00,
2013-02-06 10:22:00,20.0,14.0,30.16,WNW,292,0.0,0.0,76,0.00,,,0.00,Rainwise IP-100,2013-02-06 15:22:00,
2013-02-06 10:27:00,20.0,14.0,30.16,WNW,292,0.0,0.0,76,0.00,,,0.00,Rainwise IP-100,2013-02-06 15:27:00,
2013-02-06 10:32:00,21.0,14.0,30.16,WNW,292,0.0,0.0,75,0.00,,,0.00,Rainwise IP-100,2013-02-06 15:32:00,
2013-02-06 10:37:00,22.0,16.0,30.15,NW,315,0.0,0.0,75,0.00,,,0.00,Rainwise IP-100,2013-02-06 15:37:00,
2013-02-06 10:42:00,22.0,16.0,30.15,North,360,0.0,0.0,75,0.00,,,0.00,Rainwise IP-100,2013-02-06 15:42:00,
2013-02-06 10:47:00,23.0,16.0,30.14,North,360,0.0,0.0,74,0.00,,,0.00,Rainwise IP-100,2013-02-06 15:47:00,
2013-02-06 10:52:00,22.0,16.0,30.14,NE,45,0.0,0.0,75,0.00,,,0.00,Rainwise IP-100,2013-02-06 15:52:00,
2013-02-06 10:57:00,23.0,16.0,30.14,NE,45,0.0,0.0,74,0.00,,,0.00,Rainwise IP-100,2013-02-06 15:57:00,
2013-02-06 11:02:00,23.0,16.0,30.13,ESE,112,0.0,0.0,74,0.00,,,0.00,Rainwise IP-100,2013-02-06 16:02:00,
2013-02-06 11:07:00,23.0,16.0,30.13,ESE,112,0.0,0.0,74,0.00,,,0.00,Rainwise IP-100,2013-02-06 16:07:00,
2013-02-06 11:12:00,23.0,16.0,30.13,ESE,112,0.0,0.0,74,0.00,,,0.00,Rainwise IP-100,2013-02-06 16:12:00,
2013-02-06 11:17:00,23.0,16.0,30.13,ESE,112,0.0,0.0,74,0.00,,,0.00,Rainwise IP-100,2013-02-06 16:17:00,
2013-02-06 11:22:00,23.0,16.0,30.13,ESE,112,0.0,0.0,74,0.00,,,0.00,Rainwise IP-100,2013-02-06 16:22:00,
2013-02-06 11:27:00,24.0,18.0,30.13,ESE,112,0.0,0.0,74,0.00,,,0.00,Rainwise IP-100,2013-02-06 16:27:00,
2013-02-06 11:33:00,24.0,18.0,30.13,ESE,112,0.0,0.0,74,0.00,,,0.00,Rainwise IP-100,2013-02-06 16:33:00,
2013-02-06 11:38:00,25.0,18.0,30.13,ESE,112,0.0,0.0,74,0.00,,,0.00,Rainwise IP-100,2013-02-06 16:38:00,
2013-02-06 11:43:00,25.0,18.0,30.12,ESE,112,0.0,0.0,74,0.00,,,0.00,Rainwise IP-100,2013-02-06 16:43:00,
2013-02-06 11:48:00,25.0,18.0,30.12,ESE,112,0.0,0.0,74,0.00,,,0.00,Rainwise IP-100,2013-02-06 16:48:00,
2013-02-06 11:53:00,26.0,18.0,30.13,ENE,67,0.0,0.0,74,0.00,,,0.00,Rainwise IP-100,2013-02-06 16:53:00,
2013-02-06 11:58:00,26.0,18.0,30.12,ENE,67,0.0,0.0,74,0.00,,,0.00,Rainwise IP-100,2013-02-06 16:58:00,
2013-02-06 12:03:00,27.0,21.0,30.11,NE,45,0.0,0.0,73,0.00,,,0.00,Rainwise IP-100,2013-02-06 17:03:00,
2013-02-06 12:08:00,26.0,18.0,30.12,ESE,112,0.0,0.0,74,0.00,,,0.00,Rainwise IP-100,2013-02-06 17:08:00,
2013-02-06 12:13:00,26.0,18.0,30.12,East,90,0.0,0.0,74,0.00,,,0.00,Rainwise IP-100,2013-02-06 17:13:00,
2013-02-06 12:18:00,27.0,21.0,30.11,ENE,67,0.0,0.0,73,0.00,,,0.00,Rainwise IP-100,2013-02-06 17:18:00,
2013-02-06 12:23:00,26.0,18.0,30.11,ESE,112,0.0,0.0,74,0.00,,,0.00,Rainwise IP-100,2013-02-06 17:23:00,
2013-02-06 12:28:00,26.0,18.0,30.11,ENE,67,0.0,0.0,74,0.00,,,0.00,Rainwise IP-100,2013-02-06 17:28:00,
2013-02-06 12:33:00,26.0,18.0,30.11,ENE,67,0.0,0.0,74,0.00,,,0.00,Rainwise IP-100,2013-02-06 17:33:00,
2013-02-06 12:38:00,26.0,18.0,30.11,SE,135,0.0,0.0,74,0.00,,,0.00,Rainwise IP-100,2013-02-06 17:38:00,
2013-02-06 12:43:00,26.0,18.0,30.11,WSW,247,5.0,7.0,74,0.00,,,0.01,Rainwise IP-100,2013-02-06 17:43:00,
2013-02-06 12:48:00,27.0,21.0,30.10,SE,135,0.0,8.0,73,0.06,,,0.01,Rainwise IP-100,2013-02-06 17:48:00,
2013-02-06 12:53:00,28.0,21.0,30.10,SE,135,6.0,6.0,73,0.06,,,0.01,Rainwise IP-100,2013-02-06 17:53:00,
2013-02-06 12:58:00,29.0,23.0,30.10,WNW,292,0.0,7.0,73,0.00,,,0.01,Rainwise IP-100,2013-02-06 17:58:00,
2013-02-06 13:03:00,30.0,23.0,30.10,WNW,292,7.0,10.0,73,0.00,,,0.01,Rainwise IP-100,2013-02-06 18:03:00,
2013-02-06 13:08:00,30.0,23.0,30.10,SE,135,0.0,10.0,73,0.00,,,0.01,Rainwise IP-100,2013-02-06 18:08:00,
2013-02-06 13:13:00,30.0,23.0,30.10,NW,315,1.0,9.0,73,0.00,,,0.01,Rainwise IP-100,2013-02-06 18:13:00,
2013-02-06 13:18:00,31.0,23.0,30.10,South,180,1.0,10.0,73,0.00,,,0.01,Rainwise IP-100,2013-02-06 18:18:00,
2013-02-06 13:23:00,31.0,23.0,30.10,East,90,0.0,6.0,73,0.00,,,0.01,Rainwise IP-100,2013-02-06 18:23:00,
2013-02-06 13:28:00,31.0,23.0,30.10,WNW,292,3.0,0.0,73,0.00,,,0.01,Rainwise IP-100,2013-02-06 18:28:00,
2013-02-06 13:34:00,31.0,23.0,30.10,South,180,0.0,4.0,73,0.00,,,0.01,Rainwise IP-100,2013-02-06 18:34:00,
2013-02-06 13:40:00,31.0,23.0,30.10,SSE,157,1.0,6.0,73,0.00,,,0.01,Rainwise IP-100,2013-02-06 18:40:00,
2013-02-06 13:45:00,31.0,23.0,30.10,West,270,0.0,6.0,73,0.00,,,0.01,Rainwise IP-100,2013-02-06 18:45:00,
2013-02-06 13:50:00,31.0,23.0,30.10,SE,135,0.0,1.0,73,0.00,,,0.01,Rainwise IP-100,2013-02-06 18:50:00,
2013-02-06 13:55:00,31.0,23.0,30.10,NW,315,0.0,4.0,73,0.00,,,0.01,Rainwise IP-100,2013-02-06 18:55:00,
2013-02-06 14:00:00,31.0,23.0,30.10,NNW,337,0.0,4.0,73,0.00,,,0.01,Rainwise IP-100,2013-02-06 19:00:00,
2013-02-06 14:05:00,31.0,23.0,30.11,WSW,247,0.0,7.0,73,0.00,,,0.01,Rainwise IP-100,2013-02-06 19:05:00,
2013-02-06 14:11:00,31.0,23.0,30.11,NW,315,0.0,4.0,73,0.00,,,0.01,Rainwise IP-100,2013-02-06 19:11:00,
2013-02-06 14:16:00,32.0,24.0,30.11,NW,315,4.0,6.0,73,0.00,,,0.01,Rainwise IP-100,2013-02-06 19:16:00,
2013-02-06 14:21:00,31.0,23.0,30.11,WNW,292,1.0,6.0,73,0.00,,,0.01,Rainwise IP-100,2013-02-06 19:21:00,
2013-02-06 14:26:00,31.0,23.0,30.11,SSW,202,0.0,9.0,73,0.00,,,0.01,Rainwise IP-100,2013-02-06 19:26:00,
2013-02-06 14:31:00,31.0,23.0,30.11,SW,225,1.0,3.0,73,0.00,,,0.01,Rainwise IP-100,2013-02-06 19:31:00,
2013-02-06 14:36:00,31.0,23.0,30.11,WSW,247,0.0,5.0,73,0.00,,,0.01,Rainwise IP-100,2013-02-06 19:36:00,
2013-02-06 14:41:00,31.0,23.0,30.11,WSW,247,0.0,6.0,73,0.00,,,0.01,Rainwise IP-100,2013-02-06 19:41:00,
2013-02-06 14:46:00,31.0,23.0,30.11,NW,315,0.0,4.0,73,0.00,,,0.01,Rainwise IP-100,2013-02-06 19:46:00,
2013-02-06 14:51:00,31.0,23.0,30.11,WSW,247,0.0,9.0,73,0.00,,,0.01,Rainwise IP-100,2013-02-06 19:51:00,
2013-02-06 14:56:00,32.0,24.0,30.12,WSW,247,0.0,4.0,73,0.00,,,0.01,Rainwise IP-100,2013-02-06 19:56:00,
2013-02-06 15:01:00,32.0,24.0,30.12,WNW,292,0.0,5.0,73,0.00,,,0.01,Rainwise IP-100,2013-02-06 20:01:00,
2013-02-06 15:06:00,31.0,23.0,30.12,NW,315,3.0,7.0,73,0.00,,,0.01,Rainwise IP-100,2013-02-06 20:06:00,
2013-02-06 15:11:00,31.0,23.0,30.12,WNW,292,0.0,7.0,73,0.00,,,0.01,Rainwise IP-100,2013-02-06 20:11:00,
2013-02-06 15:16:00,31.0,23.0,30.12,WNW,292,0.0,7.0,73,0.00,,,0.01,Rainwise IP-100,2013-02-06 20:16:00,
2013-02-06 15:22:00,31.0,23.0,30.12,West,270,4.0,7.0,73,0.00,,,0.01,Rainwise IP-100,2013-02-06 20:22:00,
2013-02-06 15:27:00,31.0,23.0,30.12,WNW,292,6.0,9.0,73,0.00,,,0.01,Rainwise IP-100,2013-02-06 20:27:00,
2013-02-06 15:32:00,31.0,23.0,30.12,West,270,1.0,7.0,73,0.00,,,0.01,Rainwise IP-100,2013-02-06 20:32:00,
2013-02-06 15:37:00,30.0,23.0,30.12,West,270,0.0,7.0,73,0.00,,,0.01,Rainwise IP-100,2013-02-06 20:37:00,
2013-02-06 15:42:00,30.0,23.0,30.13,SW,225,0.0,2.0,73,0.00,,,0.01,Rainwise IP-100,2013-02-06 20:42:00,
2013-02-06 15:49:00,30.0,23.0,30.13,WSW,247,3.0,9.0,73,0.00,,,0.01,Rainwise IP-100,2013-02-06 20:49:00,
2013-02-06 15:54:00,30.0,23.0,30.13,WNW,292,0.0,5.0,73,0.00,,,0.01,Rainwise IP-100,2013-02-06 20:54:00,
2013-02-06 15:59:00,29.0,23.0,30.13,West,270,2.0,7.0,73,0.00,,,0.01,Rainwise IP-100,2013-02-06 20:59:00,
2013-02-06 16:04:00,30.0,23.0,30.14,WNW,292,0.0,12.0,73,0.00,,,0.01,Rainwise IP-100,2013-02-06 21:04:00,
2013-02-06 16:09:00,29.0,23.0,30.14,WNW,292,0.0,7.0,73,0.00,,,0.01,Rainwise IP-100,2013-02-06 21:09:00,
2013-02-06 16:14:00,29.0,23.0,30.14,West,270,1.0,4.0,73,0.00,,,0.01,Rainwise IP-100,2013-02-06 21:14:00,
2013-02-06 16:19:00,29.0,23.0,30.14,WNW,292,1.0,5.0,73,0.00,,,0.01,Rainwise IP-100,2013-02-06 21:19:00,
2013-02-06 16:24:00,29.0,23.0,30.14,WNW,292,0.0,7.0,73,0.00,,,0.01,Rainwise IP-100,2013-02-06 21:24:00,
2013-02-06 16:30:00,29.0,23.0,30.14,WSW,247,0.0,12.0,73,0.00,,,0.01,Rainwise IP-100,2013-02-06 21:30:00,
2013-02-06 16:35:00,29.0,23.0,30.15,WNW,292,0.0,7.0,73,0.00,,,0.01,Rainwise IP-100,2013-02-06 21:35:00,
2013-02-06 16:40:00,29.0,23.0,30.15,WNW,292,0.0,5.0,73,0.00,,,0.01,Rainwise IP-100,2013-02-06 21:40:00,
2013-02-06 16:45:00,28.0,21.0,30.15,WSW,247,0.0,3.0,73,0.00,,,0.01,Rainwise IP-100,2013-02-06 21:45:00,
2013-02-06 16:50:00,28.0,21.0,30.15,WNW,292,0.0,3.0,73,0.00,,,0.01,Rainwise IP-100,2013-02-06 21:50:00,
2013-02-06 16:55:00,28.0,21.0,30.15,WNW,292,0.0,4.0,73,0.00,,,0.01,Rainwise IP-100,2013-02-06 21:55:00,
2013-02-06 17:01:00,28.0,21.0,30.16,WSW,247,0.0,3.0,73,0.00,,,0.01,Rainwise IP-100,2013-02-06 22:01:00,
2013-02-06 17:06:00,28.0,21.0,30.16,NW,315,0.0,5.0,73,0.00,,,0.01,Rainwise IP-100,2013-02-06 22:06:00,
2013-02-06 17:11:00,28.0,21.0,30.17,WNW,292,0.0,5.0,73,0.00,,,0.01,Rainwise IP-100,2013-02-06 22:11:00,
2013-02-06 17:16:00,28.0,21.0,30.17,WNW,292,3.0,4.0,73,0.00,,,0.01,Rainwise IP-100,2013-02-06 22:16:00,
2013-02-06 17:21:00,28.0,21.0,30.17,NNW,337,0.0,5.0,73,0.00,,,0.01,Rainwise IP-100,2013-02-06 22:21:00,
2013-02-06 17:26:00,28.0,21.0,30.18,WNW,292,1.0,10.0,73,0.00,,,0.01,Rainwise IP-100,2013-02-06 22:26:00,
2013-02-06 17:31:00,28.0,21.0,30.18,WNW,292,1.0,8.0,73,0.00,,,0.01,Rainwise IP-100,2013-02-06 22:31:00,
2013-02-06 17:36:00,28.0,21.0,30.18,NW,315,0.0,7.0,73,0.00,,,0.01,Rainwise IP-100,2013-02-06 22:36:00,
2013-02-06 17:41:00,27.0,21.0,30.19,WNW,292,0.0,7.0,73,0.00,,,0.01,Rainwise IP-100,2013-02-06 22:41:00,
2013-02-06 17:46:00,27.0,21.0,30.19,WNW,292,0.0,6.0,73,0.00,,,0.01,Rainwise IP-100,2013-02-06 22:46:00,
2013-02-06 17:51:00,27.0,21.0,30.19,NW,315,1.0,5.0,73,0.00,,,0.01,Rainwise IP-100,2013-02-06 22:51:00,
2013-02-06 17:56:00,27.0,21.0,30.19,WNW,292,2.0,4.0,73,0.00,,,0.01,Rainwise IP-100,2013-02-06 22:56:00,
2013-02-06 18:01:00,27.0,21.0,30.20,WNW,292,0.0,6.0,73,0.00,,,0.01,Rainwise IP-100,2013-02-06 23:01:00,
2013-02-06 18:06:00,27.0,21.0,30.20,WNW,292,0.0,7.0,73,0.00,,,0.01,Rainwise IP-100,2013-02-06 23:06:00,
2013-02-06 18:11:00,26.0,18.0,30.22,WSW,247,2.0,5.0,74,0.00,,,0.01,Rainwise IP-100,2013-02-06 23:11:00,
2013-02-06 18:16:00,26.0,18.0,30.22,West,270,0.0,8.0,74,0.00,,,0.01,Rainwise IP-100,2013-02-06 23:16:00,
2013-02-06 18:21:00,26.0,18.0,30.22,WNW,292,4.0,12.0,74,0.00,,,0.01,Rainwise IP-100,2013-02-06 23:21:00,
2013-02-06 18:26:00,27.0,21.0,30.22,NW,315,1.0,12.0,73,0.00,,,0.01,Rainwise IP-100,2013-02-06 23:26:00,
2013-02-06 18:31:00,26.0,18.0,30.23,NNW,337,4.0,8.0,74,0.00,,,0.01,Rainwise IP-100,2013-02-06 23:31:00,
2013-02-06 18:36:00,26.0,18.0,30.23,WNW,292,8.0,10.0,74,0.00,,,0.01,Rainwise IP-100,2013-02-06 23:36:00,
2013-02-06 18:41:00,26.0,18.0,30.24,NNW,337,14.0,14.0,74,0.00,,,0.01,Rainwise IP-100,2013-02-06 23:41:00,
2013-02-06 18:46:00,26.0,18.0,30.24,NW,315,5.0,15.0,74,0.00,,,0.01,Rainwise IP-100,2013-02-06 23:46:00,
2013-02-06 18:51:00,26.0,18.0,30.25,WNW,292,0.0,13.0,74,0.00,,,0.01,Rainwise IP-100,2013-02-06 23:51:00,
2013-02-06 18:57:00,25.0,18.0,30.25,NW,315,8.0,13.0,74,0.00,,,0.01,Rainwise IP-100,2013-02-06 23:57:00,
2013-02-06 19:02:00,25.0,18.0,30.25,WNW,292,9.0,14.0,74,0.00,,,0.01,Rainwise IP-100,2013-02-07 00:02:00,
2013-02-06 19:07:00,24.0,18.0,30.26,NNW,337,6.0,16.0,74,0.00,,,0.01,Rainwise IP-100,2013-02-07 00:07:00,
2013-02-06 19:12:00,24.0,18.0,30.26,NW,315,0.0,16.0,74,0.00,,,0.01,Rainwise IP-100,2013-02-07 00:12:00,
2013-02-06 19:17:00,24.0,18.0,30.26,WNW,292,0.0,12.0,74,0.00,,,0.01,Rainwise IP-100,2013-02-07 00:17:00,
2013-02-06 19:22:00,24.0,18.0,30.27,WNW,292,1.0,15.0,74,0.00,,,0.01,Rainwise IP-100,2013-02-07 00:22:00,
2013-02-06 19:27:00,23.0,16.0,30.27,WNW,292,6.0,14.0,75,0.00,,,0.01,Rainwise IP-100,2013-02-07 00:27:00,
2013-02-06 19:32:00,23.0,16.0,30.27,NW,315,4.0,15.0,75,0.00,,,0.01,Rainwise IP-100,2013-02-07 00:32:00,
2013-02-06 19:37:00,23.0,16.0,30.28,NW,315,10.0,15.0,75,0.00,,,0.01,Rainwise IP-100,2013-02-07 00:37:00,
2013-02-06 19:42:00,23.0,16.0,30.28,NW,315,3.0,13.0,75,0.00,,,0.01,Rainwise IP-100,2013-02-07 00:42:00,
2013-02-06 19:47:00,23.0,16.0,30.28,NW,315,7.0,16.0,75,0.00,,,0.01,Rainwise IP-100,2013-02-07 00:47:00,
2013-02-06 19:52:00,22.0,16.0,30.28,WNW,292,0.0,16.0,75,0.00,,,0.01,Rainwise IP-100,2013-02-07 00:52:00,
2013-02-06 19:57:00,22.0,16.0,30.28,NW,315,4.0,15.0,75,0.00,,,0.01,Rainwise IP-100,2013-02-07 00:57:00,
2013-02-06 20:02:00,22.0,16.0,30.28,WNW,292,5.0,10.0,75,0.00,,,0.01,Rainwise IP-100,2013-02-07 01:02:00,
2013-02-06 20:07:00,22.0,16.0,30.29,WNW,292,4.0,21.0,75,0.00,,,0.01,Rainwise IP-100,2013-02-07 01:07:00,
2013-02-06 20:12:00,22.0,16.0,30.29,WNW,292,6.0,17.0,75,0.00,,,0.01,Rainwise IP-100,2013-02-07 01:12:00,
2013-02-06 20:17:00,21.0,14.0,30.30,SSW,202,1.0,14.0,76,0.00,,,0.01,Rainwise IP-100,2013-02-07 01:17:00,
2013-02-06 20:22:00,21.0,14.0,30.31,WNW,292,4.0,10.0,76,0.00,,,0.01,Rainwise IP-100,2013-02-07 01:22:00,
2013-02-06 20:27:00,21.0,14.0,30.31,WNW,292,0.0,12.0,76,0.00,,,0.01,Rainwise IP-100,2013-02-07 01:27:00,
2013-02-06 20:32:00,21.0,14.0,30.32,WNW,292,3.0,10.0,76,0.00,,,0.01,Rainwise IP-100,2013-02-07 01:32:00,
2013-02-06 20:40:00,21.0,14.0,30.32,WNW,292,1.0,15.0,76,0.00,,,0.01,Rainwise IP-100,2013-02-07 01:40:00,
2013-02-06 20:45:00,21.0,14.0,30.32,West,270,0.0,12.0,76,0.00,,,0.01,Rainwise IP-100,2013-02-07 01:45:00,
2013-02-06 20:53:00,20.0,14.0,30.33,WNW,292,0.0,12.0,76,0.00,,,0.01,Rainwise IP-100,2013-02-07 01:53:00,
2013-02-06 20:58:00,20.0,14.0,30.33,WNW,292,6.0,11.0,76,0.00,,,0.01,Rainwise IP-100,2013-02-07 01:58:00,
2013-02-06 21:03:00,20.0,14.0,30.33,WNW,292,3.0,12.0,76,0.00,,,0.01,Rainwise IP-100,2013-02-07 02:03:00,
2013-02-06 21:09:00,20.0,14.0,30.33,WNW,292,0.0,8.0,76,0.00,,,0.01,Rainwise IP-100,2013-02-07 02:09:00,
2013-02-06 21:14:00,20.0,14.0,30.33,WSW,247,0.0,9.0,76,0.00,,,0.01,Rainwise IP-100,2013-02-07 02:14:00,
2013-02-06 21:19:00,19.0,14.0,30.34,WNW,292,0.0,9.0,77,0.00,,,0.01,Rainwise IP-100,2013-02-07 02:19:00,
2013-02-06 21:24:00,19.0,14.0,30.34,WSW,247,4.0,10.0,77,0.00,,,0.01,Rainwise IP-100,2013-02-07 02:24:00,
2013-02-06 21:29:00,19.0,14.0,30.34,West,270,6.0,10.0,77,0.00,,,0.01,Rainwise IP-100,2013-02-07 02:29:00,
2013-02-06 21:34:00,19.0,14.0,30.34,WNW,292,2.0,13.0,77,0.00,,,0.01,Rainwise IP-100,2013-02-07 02:34:00,
2013-02-06 21:39:00,19.0,14.0,30.34,WNW,292,5.0,9.0,77,0.00,,,0.01,Rainwise IP-100,2013-02-07 02:39:00,
2013-02-06 21:44:00,18.0,14.0,30.35,NW,315,2.0,12.0,77,0.00,,,0.01,Rainwise IP-100,2013-02-07 02:44:00,
2013-02-06 21:49:00,18.0,14.0,30.35,NW,315,5.0,12.0,77,0.00,,,0.01,Rainwise IP-100,2013-02-07 02:49:00,
2013-02-06 21:54:00,18.0,14.0,30.35,WNW,292,6.0,9.0,77,0.00,,,0.01,Rainwise IP-100,2013-02-07 02:54:00,
2013-02-06 21:59:00,18.0,14.0,30.35,WNW,292,5.0,11.0,77,0.00,,,0.01,Rainwise IP-100,2013-02-07 02:59:00,
2013-02-06 22:04:00,18.0,14.0,30.35,WSW,247,5.0,15.0,77,0.00,,,0.01,Rainwise IP-100,2013-02-07 03:04:00,
2013-02-06 22:09:00,18.0,14.0,30.36,WNW,292,0.0,9.0,77,0.00,,,0.01,Rainwise IP-100,2013-02-07 03:09:00,
2013-02-06 22:14:00,17.0,14.0,30.36,NNW,337,0.0,6.0,78,0.00,,,0.01,Rainwise IP-100,2013-02-07 03:14:00,
2013-02-06 22:19:00,17.0,14.0,30.36,WNW,292,3.0,7.0,78,0.00,,,0.01,Rainwise IP-100,2013-02-07 03:19:00,
2013-02-06 22:24:00,17.0,14.0,30.37,WNW,292,0.0,7.0,78,0.00,,,0.01,Rainwise IP-100,2013-02-07 03:24:00,
2013-02-06 22:29:00,17.0,14.0,30.37,NNW,337,0.0,7.0,78,0.00,,,0.01,Rainwise IP-100,2013-02-07 03:29:00,
2013-02-06 22:34:00,17.0,14.0,30.37,WNW,292,0.0,9.0,78,0.00,,,0.01,Rainwise IP-100,2013-02-07 03:34:00,
2013-02-06 22:39:00,17.0,14.0,30.38,WNW,292,1.0,9.0,78,0.00,,,0.01,Rainwise IP-100,2013-02-07 03:39:00,
2013-02-06 22:44:00,17.0,14.0,30.38,NW,315,8.0,8.0,78,0.00,,,0.01,Rainwise IP-100,2013-02-07 03:44:00,
2013-02-06 22:49:00,17.0,14.0,30.38,WNW,292,5.0,12.0,78,0.00,,,0.01,Rainwise IP-100,2013-02-07 03:49:00,
2013-02-06 22:54:00,16.0,11.0,30.38,WNW,292,7.0,9.0,78,0.00,,,0.01,Rainwise IP-100,2013-02-07 03:54:00,
2013-02-06 22:59:00,16.0,11.0,30.39,NW,315,1.0,10.0,78,0.00,,,0.01,Rainwise IP-100,2013-02-07 03:59:00,
2013-02-06 23:04:00,16.0,11.0,30.39,West,270,0.0,9.0,78,0.00,,,0.01,Rainwise IP-100,2013-02-07 04:04:00,
2013-02-06 23:09:00,16.0,11.0,30.39,WNW,292,9.0,9.0,78,0.00,,,0.01,Rainwise IP-100,2013-02-07 04:09:00,
2013-02-06 23:14:00,16.0,11.0,30.40,WNW,292,1.0,10.0,78,0.00,,,0.01,Rainwise IP-100,2013-02-07 04:14:00,
2013-02-06 23:19:00,16.0,11.0,30.40,WNW,292,0.0,10.0,78,0.00,,,0.01,Rainwise IP-100,2013-02-07 04:19:00,
2013-02-06 23:24:00,15.0,11.0,30.40,NW,315,1.0,14.0,79,0.00,,,0.01,Rainwise IP-100,2013-02-07 04:24:00,
2013-02-06 23:29:00,15.0,11.0,30.41,NW,315,2.0,10.0,79,0.00,,,0.01,Rainwise IP-100,2013-02-07 04:29:00,
2013-02-06 23:34:00,15.0,11.0,30.42,NW,315,2.0,10.0,79,0.00,,,0.01,Rainwise IP-100,2013-02-07 04:34:00,
2013-02-06 23:39:00,15.0,11.0,30.42,NW,315,3.0,7.0,79,0.00,,,0.01,Rainwise IP-100,2013-02-07 04:39:00,
2013-02-06 23:44:00,15.0,11.0,30.42,WNW,292,7.0,12.0,79,0.00,,,0.01,Rainwise IP-100,2013-02-07 04:44:00,
2013-02-06 23:49:00,15.0,11.0,30.42,NW,315,4.0,9.0,79,0.00,,,0.01,Rainwise IP-100,2013-02-07 04:49:00,
2013-02-06 23:54:00,15.0,11.0,30.42,NNW,337,9.0,9.0,79,0.00,,,0.01,Rainwise IP-100,2013-02-07 04:54:00,
2013-02-06 23:59:00,14.0,8.0,30.43,NW,315,4.0,13.0,79,0.00,,,0.01,Rainwise IP-100,2013-02-07 04:59:00,